Location: Godiavel Galaoual
(15.2485°N, 12.6604°W)
Time: 02:18:18
(UTC+00:00)

Transit 4A - Pass Details

Date: 19 June 2021
Orbit: 872 x 972 km, 66.8° (Epoch: 29 July)

Event Time Altitude Azimuth Distance (km) Brightness Sun altitude
Rises 09:21:31 0° 200° (SSW) 3,610 10.7 39.9°
Reaches altitude 10° 09:24:04 10° 200° (SSW) 2,652 10.1 40.5°
Maximum altitude 09:30:16 90° 119° (ESE) 927 8.7 41.9°
Drops below altitude 10° 09:36:17 10° 21° (NNE) 2,584 10.8 43.3°
Sets 09:38:45 0° 21° (NNE) 3,512 11.3 43.9°
